OBJECT C, 62731

Orbit data source: Space-Track

You're viewing an Uncataloged Satellite

Recently launched and/or uncataloged satellites may have evolving metadata. Metadata may include but not limited to: Owner, Maufacturer, Bus, Motor, and Mission.

OBJECT C, 62731 is a satellite owned by Yunyao yuhang (CN) in SSO that was launched on Mon, 20 Jan 2025 UTC via a GUSHENXING 1 launch vehicle from the Jiuquan Satellite Launch Center, China (JSC). Unknown objects in Earth's orbit typically refer to objects detected orbiting the Earth but have not yet been identified or cataloged. These objects could be anything from previously untracked satellites, spent rocket stages, debris from satellite collisions, or even natural meteoroids temporarily captured by Earth's gravity.

Loading next visibility...
OBJECT C details
Identifier
62731, 2025-013C
Orbit
SSO
Last TLE update18 hours ago
Origin
Flag of CNYunyao yuhang (CN / PRC)
ManufacturerYunyao yuhang
MissionOperational spacecraft
Bus & MotorYY-1, Unknown motor
Mass~50 kg wet, ~50 kg dry
Launch date (UTC)
2025-01-20 (1 month ago)
Launch vehicle
GUSHENXING 1
Launch site
Jiuquan Satellite Launch Center, China (JSC)
Object typeUnknown
Shape & HBRUnknown
Radar Cross SectionMedium (>0.1 m² and <1 m²)

Expand to show TLE details & history

TLE from 18 hours ago
0 OBJECT C
1 62731U 25013C   25046.78881564  .00008031  00000-0  54563-3 0  9992
2 62731  97.6087 213.6801 0015249 232.1521 127.8327 15.06543101  3982
Epoch: 2025-02-15T18:55Z
Definitive object data (Epoch: 2025-02-15T18:55:53.671Z)
Latitude-0.00002°
Longitude143.67528°
Altitude556.328 km
Speed7.58 km/s
True Right ascension14h 14m 43s
True Declination0° 00' 00"
Sunlit
Object was in full shadow at TLE epoch
Visualization TLE readout
Latitude81.96537°
Longitude34.66312°
Altitude567.95 km
Speed7.58 km/s
Apparent Right ascension04h 09m 55s
Apparent Declination26° 32' 34"
Sunlit
Object is in daylight
Visualization observer readout
Local Sidereal Time15:39:14
Azimuth352.536° N
Elevation-23.158°
Doppler factor1
Orbital elements
Apogee altitude554.321 km
Perigee altitude533.21 km
Semi-major axis6,921.903 km
Eccentricity0.0015249
Inclination97.6087°
RAAN213.6801°
Arg. of periapsis232.1521°
True anomaly127.97055°
Mean anomaly127.8327°
Eccentric anomaly127.90164°
Mean motion3.76882 °/min
BSTAR0.00054563
Orbital period95.52 mins
Loading maneuver chart data...
Loading historical data...
Loading historical data...
Loading historical data...
Loading historical data...
Loading historical data...
Loading historical data...
Loading historical data...
Other satellites on launch #13 in the year 2025 (2025-01-20 UTC)

OBJECT C Visibility forecast

Observer location: undefined°, undefined

Span
Click to sort rows by Start time (UTC) header in descending order
Start Az.
Max El. time (UTC)
Max El. Az.
Max El.
End time (UTC)
End Az.
6 mins2025-02-17 00:11:38.017Z357.737° N2025-02-17 00:14:38.017Z270.216° WNW38.242°2025-02-17 00:17:38.017Z210.956° SW
6 mins2025-02-17 10:55:38.017Z155.497° SSE2025-02-17 10:57:38.017Z94.225° ESE43.485°2025-02-17 11:01:38.017Z352.202° N
|